Terminal Aerodrome Forecast
Issued by NWS Quad Cities IA IL

Home | Current Version | Previous Version | Text Only | Print | Product List | Glossary On
Versions: 1 2 3 4 5 6 7 8 9 10 11 12 13 14 15 16 17 18 19 20 21 22 23 24 25 26 27 28 29 30 31
827
FTUS43 KDVN 222320
TAFDBQ
TAF
KDBQ 222320Z 2300/2324 23010KT P6SM BKN120
     FM230200 24006KT P6SM OVC050
     FM231400 30008KT P6SM SCT015 BKN035
      TEMPO 2314/2318 BKN025=

USA.gov is the U.S. government's official web portal to all federal, state and local government web resources and services.